RYR792 LPPR-LPPT

Flight info

Callsign RYR792
Flight time 0h 49m
Altitude 21000
Route MANIK DCT ABRIL DCT XAMAX
Aircraft B38M/M-SDE1FGHILORVWXY/HB1

Departure

Time 2026-05-05 11:04
Airport Francisco de Sá Carneiro Airport (LPPR)

Arrival

Time 2026-05-05 11:54
Airport Lisbon Humberto Delgado Airport (LPPT)
Time Latitude Longitude Altitude Speed Heading
2026-05-05 10:50 41.23852 -8.67586 238 ft 0 kts 258°
2026-05-05 10:58 41.23853 -8.67580 238 ft 3 kts 258°
2026-05-05 10:59 41.23859 -8.67546 238 ft 4 kts 250°
2026-05-05 10:59 41.23871 -8.67514 238 ft 4 kts 232°
2026-05-05 10:59 41.23890 -8.67495 239 ft 4 kts 184°
2026-05-05 10:59 41.23897 -8.67495 239 ft 2 kts 168°
2026-05-05 11:02 41.23887 -8.67492 239 ft 6 kts 167°
2026-05-05 11:02 41.23818 -8.67468 240 ft 16 kts 163°
2026-05-05 11:03 41.23688 -8.67431 240 ft 21 kts 180°
2026-05-05 11:03 41.23612 -8.67585 238 ft 23 kts 259°
2026-05-05 11:03 41.23612 -8.67799 235 ft 25 kts 311°
2026-05-05 11:03 41.23809 -8.67868 225 ft 47 kts 353°
2026-05-05 11:04 41.24416 -8.68029 215 ft 129 kts 348°
2026-05-05 11:04 41.25538 -8.68306 265 ft 190 kts 351°
2026-05-05 11:04 41.26898 -8.68569 1202 ft 203 kts 343°
2026-05-05 11:04 41.28147 -8.69433 2439 ft 206 kts 315°
2026-05-05 11:05 41.28775 -8.71171 3457 ft 224 kts 274°
2026-05-05 11:05 41.28230 -8.73087 4650 ft 229 kts 226°
2026-05-05 11:05 41.26719 -8.73960 5377 ft 262 kts 184°
2026-05-05 11:05 41.24815 -8.74098 6056 ft 275 kts 185°
2026-05-05 11:06 41.23036 -8.74611 6829 ft 257 kts 205°
2026-05-05 11:06 41.21289 -8.75284 7622 ft 272 kts 185°
2026-05-05 11:06 41.19346 -8.75161 8428 ft 289 kts 175°
2026-05-05 11:06 41.17296 -8.74864 9241 ft 305 kts 175°
2026-05-05 11:07 41.15133 -8.74543 10066 ft 319 kts 175°
2026-05-05 11:07 41.12879 -8.74204 10829 ft 333 kts 175°
2026-05-05 11:07 41.10529 -8.73843 11620 ft 346 kts 175°
2026-05-05 11:07 41.08104 -8.73463 12421 ft 357 kts 174°
2026-05-05 11:08 41.05602 -8.73077 13253 ft 366 kts 174°
2026-05-05 11:08 41.03041 -8.72678 14074 ft 375 kts 175°
2026-05-05 11:08 41.00423 -8.72263 14836 ft 382 kts 175°
2026-05-05 11:08 40.97773 -8.71836 15629 ft 387 kts 175°
2026-05-05 11:09 40.95079 -8.71393 16438 ft 392 kts 175°
2026-05-05 11:09 40.92362 -8.70933 17265 ft 395 kts 175°
2026-05-05 11:09 40.89630 -8.70461 18140 ft 397 kts 175°
2026-05-05 11:09 40.86880 -8.69973 18932 ft 398 kts 175°
2026-05-05 11:10 40.84141 -8.69469 19721 ft 397 kts 175°
2026-05-05 11:10 40.81432 -8.68942 20543 ft 392 kts 175°
2026-05-05 11:10 40.78702 -8.68382 20901 ft 403 kts 175°
2026-05-05 11:10 40.75871 -8.67803 20960 ft 420 kts 174°
2026-05-05 11:11 40.72927 -8.67208 20987 ft 437 kts 175°
2026-05-05 11:11 40.69868 -8.66581 21010 ft 453 kts 175°
2026-05-05 11:11 40.66726 -8.65940 21014 ft 469 kts 175°
2026-05-05 11:11 40.63449 -8.65277 21017 ft 483 kts 175°
2026-05-05 11:12 40.60101 -8.64605 21036 ft 490 kts 175°
2026-05-05 11:12 40.56712 -8.63927 21080 ft 493 kts 175°
2026-05-05 11:12 40.53316 -8.63242 21101 ft 494 kts 175°
2026-05-05 11:12 40.49918 -8.62555 21100 ft 494 kts 175°
2026-05-05 11:13 40.46525 -8.61867 21101 ft 494 kts 175°
2026-05-05 11:13 40.43115 -8.61173 21102 ft 494 kts 175°
2026-05-05 11:13 40.39721 -8.60479 21102 ft 495 kts 175°
2026-05-05 11:13 40.36318 -8.59787 21103 ft 495 kts 175°
2026-05-05 11:14 40.32913 -8.59090 21106 ft 495 kts 175°
2026-05-05 11:14 40.29501 -8.58388 21102 ft 495 kts 175°
2026-05-05 11:14 40.26096 -8.57686 21104 ft 495 kts 175°
2026-05-05 11:14 40.22739 -8.56989 21106 ft 495 kts 175°
2026-05-05 11:15 40.19336 -8.56279 21102 ft 495 kts 175°
2026-05-05 11:15 40.15927 -8.55562 21103 ft 495 kts 175°
2026-05-05 11:15 40.12524 -8.54843 21106 ft 495 kts 175°
2026-05-05 11:15 40.09123 -8.54123 21105 ft 495 kts 175°
2026-05-05 11:16 40.07240 -8.53724 21100 ft 495 kts 175°
2026-05-05 11:16 40.03842 -8.53002 21106 ft 495 kts 175°
2026-05-05 11:16 40.00413 -8.52271 21103 ft 494 kts 175°
2026-05-05 11:16 39.97005 -8.51542 21107 ft 494 kts 175°
2026-05-05 11:17 39.93614 -8.50815 21098 ft 494 kts 175°
2026-05-05 11:17 39.90222 -8.50084 21104 ft 494 kts 175°
2026-05-05 11:17 39.86830 -8.49353 21106 ft 494 kts 175°
2026-05-05 11:17 39.83450 -8.48622 21106 ft 493 kts 175°
2026-05-05 11:18 39.80057 -8.47889 21107 ft 493 kts 175°
2026-05-05 11:18 39.76670 -8.47157 21102 ft 492 kts 175°
2026-05-05 11:18 39.73344 -8.46438 21101 ft 491 kts 175°
2026-05-05 11:18 39.69970 -8.45706 21100 ft 491 kts 175°
2026-05-05 11:19 39.66596 -8.44974 21099 ft 491 kts 175°
2026-05-05 11:19 39.63230 -8.44239 21099 ft 490 kts 175°
2026-05-05 11:19 39.59864 -8.43500 21098 ft 490 kts 175°
2026-05-05 11:19 39.56492 -8.42761 21094 ft 490 kts 175°
2026-05-05 11:20 39.53138 -8.42027 21096 ft 489 kts 175°
2026-05-05 11:20 39.49780 -8.41298 21092 ft 487 kts 176°
2026-05-05 11:20 39.46455 -8.41181 21081 ft 472 kts 194°
2026-05-05 11:20 39.43400 -8.42413 21093 ft 454 kts 214°
2026-05-05 11:21 39.40796 -8.44623 21111 ft 446 kts 222°
2026-05-05 11:21 39.38311 -8.47014 21105 ft 445 kts 223°
2026-05-05 11:21 39.35837 -8.49412 21089 ft 444 kts 223°
2026-05-05 11:21 39.33362 -8.51817 21095 ft 444 kts 223°
2026-05-05 11:22 39.30896 -8.54219 21093 ft 444 kts 223°
2026-05-05 11:22 39.28427 -8.56628 21098 ft 444 kts 223°
2026-05-05 11:22 39.25960 -8.59040 21098 ft 444 kts 223°
2026-05-05 11:22 39.23502 -8.61449 21096 ft 444 kts 223°
2026-05-05 11:23 39.21049 -8.63859 21102 ft 444 kts 223°
2026-05-05 11:23 39.18581 -8.66290 21100 ft 445 kts 223°
2026-05-05 11:23 39.16118 -8.68722 21121 ft 445 kts 223°
2026-05-05 11:23 39.13680 -8.71166 21100 ft 442 kts 226°
2026-05-05 11:24 39.11550 -8.73981 21121 ft 436 kts 233°
2026-05-05 11:24 39.09571 -8.76872 20447 ft 431 kts 234°
2026-05-05 11:24 39.07599 -8.79788 19700 ft 430 kts 234°
2026-05-05 11:24 39.05645 -8.82687 19073 ft 427 kts 234°
2026-05-05 11:25 39.03705 -8.85571 18435 ft 425 kts 234°
2026-05-05 11:25 39.02427 -8.87476 17961 ft 423 kts 234°
2026-05-05 11:25 38.99896 -8.91263 17093 ft 419 kts 234°
2026-05-05 11:25 38.98009 -8.94104 16461 ft 416 kts 234°
2026-05-05 11:26 38.96140 -8.96926 15857 ft 413 kts 233°
2026-05-05 11:26 38.94884 -8.98831 15432 ft 412 kts 233°
2026-05-05 11:26 38.93039 -9.01636 14803 ft 410 kts 234°
2026-05-05 11:26 38.91214 -9.04427 14246 ft 407 kts 234°
2026-05-05 11:27 38.89423 -9.07167 13666 ft 403 kts 233°
2026-05-05 11:27 38.87628 -9.09924 13028 ft 401 kts 233°
2026-05-05 11:27 38.85851 -9.12670 12445 ft 398 kts 233°
2026-05-05 11:27 38.84096 -9.15392 11862 ft 396 kts 233°
2026-05-05 11:28 38.82352 -9.18118 11312 ft 393 kts 233°
2026-05-05 11:28 38.80625 -9.20829 10758 ft 391 kts 233°
2026-05-05 11:28 38.78917 -9.23525 10231 ft 389 kts 233°
2026-05-05 11:28 38.77221 -9.26215 9673 ft 387 kts 233°
2026-05-05 11:29 38.75537 -9.28898 9149 ft 384 kts 233°
2026-05-05 11:29 38.73876 -9.31561 8591 ft 382 kts 233°
2026-05-05 11:29 38.72231 -9.34220 8144 ft 377 kts 234°
2026-05-05 11:29 38.70610 -9.36841 7874 ft 377 kts 233°
2026-05-05 11:30 38.68990 -9.39468 7588 ft 372 kts 233°
2026-05-05 11:30 38.67406 -9.42046 7315 ft 364 kts 233°
2026-05-05 11:30 38.65860 -9.44566 7055 ft 356 kts 233°
2026-05-05 11:30 38.64353 -9.47031 6783 ft 349 kts 234°
2026-05-05 11:31 38.62873 -9.49454 6502 ft 342 kts 233°
2026-05-05 11:31 38.61423 -9.51833 6210 ft 335 kts 233°
2026-05-05 11:31 38.60008 -9.54159 5940 ft 329 kts 233°
2026-05-05 11:31 38.58608 -9.56454 5647 ft 324 kts 233°
2026-05-05 11:32 38.57226 -9.58713 5364 ft 319 kts 233°
2026-05-05 11:32 38.55871 -9.60928 5082 ft 315 kts 233°
2026-05-05 11:32 38.54524 -9.63120 4795 ft 311 kts 233°
2026-05-05 11:32 38.53090 -9.65153 4491 ft 309 kts 218°
2026-05-05 11:33 38.51119 -9.66182 4188 ft 309 kts 186°
2026-05-05 11:33 38.49045 -9.65785 4031 ft 299 kts 153°
2026-05-05 11:33 38.47519 -9.64152 4005 ft 280 kts 121°
2026-05-05 11:33 38.46606 -9.62058 4029 ft 263 kts 115°
2026-05-05 11:34 38.45777 -9.60019 4027 ft 256 kts 115°
2026-05-05 11:34 38.44958 -9.58011 4028 ft 255 kts 114°
2026-05-05 11:34 38.44133 -9.55997 4029 ft 255 kts 115°
2026-05-05 11:34 38.43309 -9.53988 4016 ft 256 kts 115°
2026-05-05 11:35 38.42475 -9.51958 4015 ft 265 kts 114°
2026-05-05 11:35 38.41921 -9.49736 3992 ft 268 kts 87°
2026-05-05 11:35 38.42346 -9.47505 4009 ft 264 kts 60°
2026-05-05 11:35 38.43218 -9.45389 4006 ft 268 kts 59°
2026-05-05 11:36 38.44107 -9.43296 4000 ft 268 kts 58°
2026-05-05 11:36 38.44996 -9.41206 4004 ft 269 kts 58°
2026-05-05 11:36 38.45888 -9.39107 4004 ft 269 kts 59°
2026-05-05 11:36 38.46778 -9.37018 3998 ft 268 kts 58°
2026-05-05 11:37 38.47674 -9.34926 3997 ft 267 kts 59°
2026-05-05 11:37 38.48573 -9.32930 3999 ft 251 kts 49°
2026-05-05 11:37 38.49828 -9.31514 4008 ft 233 kts 32°
2026-05-05 11:37 38.51126 -9.30386 4008 ft 218 kts 32°
2026-05-05 11:38 38.52332 -9.29326 4023 ft 203 kts 31°
2026-05-05 11:38 38.53446 -9.28340 4007 ft 187 kts 31°
2026-05-05 11:38 38.54434 -9.27451 4039 ft 161 kts 32°
2026-05-05 11:38 38.55336 -9.26632 4016 ft 159 kts 31°
2026-05-05 11:39 38.56238 -9.25811 4004 ft 158 kts 31°
2026-05-05 11:39 38.57106 -9.25018 3962 ft 149 kts 32°
2026-05-05 11:39 38.57982 -9.24326 3917 ft 146 kts 21°
2026-05-05 11:39 38.58921 -9.23828 3871 ft 146 kts 20°
2026-05-05 11:40 38.59860 -9.23339 3822 ft 146 kts 19°
2026-05-05 11:40 38.60788 -9.22850 3788 ft 146 kts 20°
2026-05-05 11:40 38.61740 -9.22345 3584 ft 146 kts 20°
2026-05-05 11:40 38.62665 -9.21854 3420 ft 145 kts 20°
2026-05-05 11:41 38.63607 -9.21349 3174 ft 144 kts 20°
2026-05-05 11:41 38.64516 -9.20864 2966 ft 139 kts 19°
2026-05-05 11:41 38.65379 -9.20403 2780 ft 134 kts 18°
2026-05-05 11:41 38.66218 -9.19956 2580 ft 128 kts 18°
2026-05-05 11:42 38.67037 -9.19520 2424 ft 128 kts 18°
2026-05-05 11:42 38.67860 -9.19078 2291 ft 128 kts 17°
2026-05-05 11:42 38.68682 -9.18639 2081 ft 128 kts 17°
2026-05-05 11:42 38.69503 -9.18203 1914 ft 127 kts 17°
2026-05-05 11:43 38.70318 -9.17763 1764 ft 127 kts 17°
2026-05-05 11:43 38.71124 -9.17335 1576 ft 124 kts 15°
2026-05-05 11:43 38.71930 -9.16906 1401 ft 127 kts 17°
2026-05-05 11:43 38.72745 -9.16465 1240 ft 126 kts 17°
2026-05-05 11:44 38.73551 -9.16038 1040 ft 126 kts 17°
2026-05-05 11:44 38.74369 -9.15600 884 ft 129 kts 18°
2026-05-05 11:44 38.75217 -9.15148 694 ft 135 kts 19°
2026-05-05 11:44 38.76095 -9.14702 740 ft 137 kts 16°
2026-05-05 11:45 38.76992 -9.14204 1011 ft 142 kts 20°
2026-05-05 11:45 38.77883 -9.13713 1544 ft 138 kts 18°
2026-05-05 11:45 38.78740 -9.13131 1981 ft 141 kts 25°
2026-05-05 11:45 38.79578 -9.12497 2211 ft 143 kts 32°
2026-05-05 11:46 38.80214 -9.11517 2375 ft 153 kts 69°
2026-05-05 11:46 38.79926 -9.10197 2059 ft 166 kts 133°
2026-05-05 11:46 38.79107 -9.09216 2171 ft 161 kts 133°
2026-05-05 11:46 38.78189 -9.08353 2425 ft 166 kts 153°
2026-05-05 11:47 38.77104 -9.07807 2722 ft 170 kts 159°
2026-05-05 11:47 38.76000 -9.07264 2629 ft 169 kts 159°
2026-05-05 11:47 38.74905 -9.06723 2720 ft 169 kts 159°
2026-05-05 11:47 38.73806 -9.06180 2860 ft 169 kts 159°
2026-05-05 11:48 38.71532 -9.05461 3168 ft 170 kts 176°
2026-05-05 11:48 38.70356 -9.05343 3306 ft 169 kts 176°
2026-05-05 11:48 38.69181 -9.05236 3456 ft 170 kts 176°
2026-05-05 11:49 38.67995 -9.05136 3611 ft 171 kts 177°
2026-05-05 11:49 38.66855 -9.05415 3685 ft 167 kts 218°
2026-05-05 11:49 38.66352 -9.06612 3733 ft 152 kts 276°
2026-05-05 11:49 38.66511 -9.07939 3969 ft 152 kts 285°
2026-05-05 11:50 38.66709 -9.09278 3988 ft 153 kts 285°
2026-05-05 11:50 38.66904 -9.10615 3999 ft 153 kts 285°
2026-05-05 11:50 38.67088 -9.11955 3944 ft 153 kts 284°
2026-05-05 11:50 38.67277 -9.13284 3787 ft 151 kts 285°
2026-05-05 11:51 38.67478 -9.14601 3571 ft 150 kts 290°
2026-05-05 11:51 38.68090 -9.15584 3323 ft 142 kts 329°
2026-05-05 11:51 38.68952 -9.16203 2914 ft 143 kts 332°
2026-05-05 11:51 38.69857 -9.16793 2271 ft 149 kts 333°
2026-05-05 11:52 38.70806 -9.17352 1643 ft 153 kts 344°
2026-05-05 11:52 38.71877 -9.17178 1045 ft 161 kts 24°
2026-05-05 11:52 38.72727 -9.16378 902 ft 139 kts 27°
2026-05-05 11:52 38.73641 -9.15925 945 ft 144 kts 14°
2026-05-05 11:53 38.74582 -9.15480 906 ft 146 kts 19°
2026-05-05 11:53 38.75517 -9.14958 694 ft 148 kts 18°
2026-05-05 11:53 38.76475 -9.14481 451 ft 148 kts 20°
2026-05-05 11:53 38.77413 -9.13991 353 ft 139 kts 22°
2026-05-05 11:54 38.78066 -9.13645 350 ft 65 kts 21°
2026-05-05 11:54 38.78252 -9.13515 353 ft 23 kts 39°
2026-05-05 11:54 38.78364 -9.13365 353 ft 24 kts 56°
2026-05-05 11:54 38.78338 -9.13255 353 ft 8 kts 189°
2026-05-05 11:55 38.78274 -9.13283 353 ft 14 kts 198°
2026-05-05 11:55 38.78153 -9.13342 352 ft 26 kts 201°
2026-05-05 11:55 38.77935 -9.13387 350 ft 37 kts 170°
2026-05-05 11:55 38.77672 -9.13332 352 ft 39 kts 172°
2026-05-05 11:56 38.77404 -9.13274 349 ft 39 kts 170°
2026-05-05 11:56 38.77201 -9.13218 358 ft 10 kts 135°
2026-05-05 11:56 38.77204 -9.13161 349 ft 7 kts 73°
2026-05-05 11:56 38.77209 -9.13138 357 ft 0 kts 75°